[[{"header":{"parameterUnit":"m.s-1","parameterCategory":1,"la1":30.2991,"la2":30.254,"lo1":-89.0895,"lo2":-89.0444,"dy":0.0017,"dx":0.0017,"nx":28,"ny":28,"refTime":"2025-03-20T21:00:00:Z","depth":0,"parameterNumber":2,"parameterNumberName":"U-component_of_WINDS"},"data":[0,0,0,0,0,0,0,0,0,0,0,0,0,0,0,0,0,0,0,0,0,0,0,0,0,0,0,0,0,0,0,0,0,0,0,0,0,0,0,0,0,0,0,0,0,0,0,0,0,0,0,0,0,0,0,0,0,0,1.6869,1.6869,0,1.6866,1.6866,1.6866,1.6811,1.681,1.6808,1.6807,1.6805,1.6806,1.6807,0,0,0,0,0,0,0,0,0,0,0,0,0,1.6828,1.6829,1.6869,1.6869,1.6869,1.6866,1.6866,1.6866,1.6811,1.6809,1.6808,1.6806,1.6804,1.6806,1.6807,0,0,0,0,0,0,0,0,0,0,0,0,0,1.6837,1.6829,1.6869,1.6841,1.6838,1.6866,1.6866,1.6866,1.6812,1.6809,1.6807,1.6805,1.6804,1.6806,1.6807,1.6862,0,0,1.6813,1.6814,0,0,0,0,0,0,0,0,1.6837,1.6839,1.6845,1.6843,1.684,1.6837,1.6851,1.6865,1.6812,1.6822,1.6807,1.6804,1.6817,1.6818,1.6822,1.6862,1.6862,1.6813,1.6815,1.6815,1.6816,0,0,0,0,0,0,0,1.6836,1.6839,1.6868,1.6845,1.6842,1.6829,1.6828,1.6853,1.6831,1.6821,1.6817,1.6817,1.6815,1.682,1.6821,1.6862,1.6813,1.6815,1.6816,1.6817,1.6949,1.6951,0,0,0,0,0,0,1.6839,1.6839,1.6868,1.6868,1.6833,1.6832,1.6831,1.684,1.6831,1.6828,1.6819,1.6815,1.6818,1.6819,1.6821,1.6886,1.6815,1.6817,1.6818,1.6946,1.6949,1.6952,0,0,0,0,0,0,1.6839,1.6842,1.6868,1.6852,1.6854,1.6835,1.6846,1.6841,1.6846,1.683,1.6826,1.6828,1.6816,1.6819,1.6853,1.6885,1.6818,1.682,1.6944,1.6947,1.695,1.7015,0,0,0,0,0,0,1.6838,1.6842,1.6862,1.6853,1.6855,1.6899,1.6848,1.6843,1.6849,1.6844,1.6837,1.6834,1.6815,1.685,1.6855,1.6886,1.6821,1.6941,1.6945,1.6949,1.7009,1.702,1.7029,0,0,0,0,0,1.6836,1.688,1.6863,1.6867,1.6879,1.6901,1.6902,1.6879,1.6852,1.6872,1.6862,1.6834,1.6881,1.6854,1.6859,1.6891,1.6938,1.6944,1.6949,1.7005,1.7018,1.7028,0,0,0,0,0,0,1.6892,1.6878,1.686,1.6901,1.6903,1.6891,1.6916,1.6893,1.6902,1.6897,1.6868,1.6867,1.6906,1.6902,1.6873,1.6945,1.6905,1.6911,1.6946,1.6958,1.6967,1.6967,1.6823,0,0,0,0,0,1.691,1.6928,1.6914,1.6952,1.6954,1.6935,1.6944,1.6926,1.6927,1.6927,1.6919,1.6921,1.6936,1.6947,1.696,1.7009,1.7008,1.7034,1.7044,1.7052,1.7057,1.7085,1.7097,1.6969,1.6969,1.6969,0,0,1.6945,1.694,1.6953,1.6964,1.6963,1.6983,1.6936,1.6959,1.6974,1.693,1.6962,1.6957,1.6958,1.7,1.7019,1.6998,1.7093,1.7058,1.7065,1.7066,1.7092,1.7104,1.7115,1.6973,1.6972,1.6972,0,0,1.7021,1.7018,1.705,1.7051,1.7051,1.7038,1.7047,1.7039,1.7035,1.7067,1.7035,1.7053,1.7079,1.7082,1.7086,1.7166,1.7141,1.7172,1.7222,1.7249,1.7259,1.7268,1.7298,1.7309,1.7177,1.7178,1.7178,0,1.7065,1.7094,1.707,1.7096,1.7102,1.7065,1.7098,1.71,1.7104,1.711,1.7087,1.7121,1.7119,1.7162,1.7182,1.7187,1.7196,1.7172,1.726,1.7268,1.7276,1.7304,1.7315,1.7181,1.7181,1.7181,1.718,0,1.7149,1.717,1.7196,1.7202,1.7212,1.7241,1.7223,1.7236,1.7218,1.7209,1.7243,1.724,1.7252,1.7261,1.7244,1.7303,1.7291,1.7264,1.7223,1.7293,1.7319,1.7329,1.7187,1.7185,1.7184,1.7183,0,0,1.7257,1.7252,1.7262,1.7266,1.7264,1.728,1.7309,1.7322,1.7334,1.7339,1.7363,1.7388,1.7365,1.737,1.7353,1.7377,1.7443,1.7348,1.7348,1.7367,1.751,1.753,1.7543,1.7427,1.7429,1.7431,1.7511,0,1.7331,1.738,1.736,1.7411,1.7431,1.7398,1.7423,1.7426,1.7419,1.7435,1.7427,1.7446,1.7412,1.7416,1.7438,1.743,1.7472,1.7424,1.745,1.7451,1.7451,1.7556,1.7577,1.7653,1.752,1.7522,1.7523,0,1.7423,1.7433,1.7486,1.7484,1.7491,1.7514,1.7526,1.7542,1.7545,1.7539,1.7546,1.7525,1.7555,1.7515,1.7556,1.7524,1.7534,1.7532,1.7535,1.7536,1.7491,1.7561,1.7676,1.7688,1.7539,1.7538,1.7537,0,1.7498,1.7525,1.756,1.7564,1.7562,1.758,1.758,1.7581,1.7591,1.7601,1.7608,1.7622,1.7629,1.7641,1.7625,1.7597,1.7669,1.7627,1.7665,1.7666,1.7681,1.7681,1.78,1.7688,1.7687,1.7687,1.7687,0,1.7582,1.7616,1.7594,1.7616,1.7654,1.7633,1.7671,1.7667,1.7669,1.7691,1.7663,1.7684,1.7661,1.768,1.7668,1.7705,1.7709,1.7705,1.7701,1.7707,1.7708,1.7713,1.7707,1.769,1.7689,1.7689,1.7688,0,1.7671,1.7658,1.7695,1.7691,1.7691,1.772,1.7716,1.7737,1.7729,1.7757,1.7762,1.775,1.7771,1.7757,1.7778,1.777,1.7819,1.7807,1.7818,1.7815,1.7854,1.7851,1.7981,1.7997,1.7874,1.7875,1.7876,0,1.7726,1.7752,1.7751,1.7764,1.7766,1.7787,1.7797,1.7778,1.7791,1.7798,1.7819,1.7838,1.7852,1.7889,1.7882,1.7899,1.7888,1.7933,1.789,1.7897,1.789,1.7889,1.7892,1.7941,1.7942,1.7944,1.7944,0,1.7824,1.7818,1.7834,1.7849,1.7863,1.7874,1.7882,1.7895,1.7876,1.7891,1.7914,1.7925,1.7948,1.7968,1.7983,1.7984,1.7962,1.7958,1.7968,1.7975,1.798,1.7979,1.7842,1.7955,1.7954,1.7953,1.7953,1.7952,1.7898,1.7921,1.7925,1.7945,1.795,1.7959,1.7979,1.7975,1.7993,1.801,1.7998,1.8025,1.8031,1.8048,1.8052,1.8074,1.8056,1.8069,1.8073,1.8077,1.8083,1.7977,1.8076,1.8076,1.8076,1.8075,1.8075,0,1.7996,1.7998,1.8017,1.8031,1.8047,1.8026,1.8035,1.8051,1.8075,1.8082,1.8097,1.8124,1.8144,1.814,1.8159,1.8177,1.8168,1.8183,1.8181,1.8182,1.8097,1.8087,1.819,1.819,1.819,1.819,1.819,1.819,1.8049,1.8086,1.808,1.8121,1.8122,1.8148,1.8156,1.8165,1.8171,1.8202,1.822,1.8217,1.822,1.8239,1.8258,1.8256,1.8265,1.8284,1.8279,1.8199,1.8188,1.8177,1.8167,1.8286,1.8286,1.8362,1.8362,1.8363]},{"header":{"parameterUnit":"m.s-1","parameterCategory":1,"la1":30.2991,"la2":30.254,"lo1":-89.0895,"lo2":-89.0444,"dy":0.0017,"dx":0.0017,"nx":28,"ny":28,"refTime":"2025-03-20T21:00:00:Z","depth":0,"parameterNumber":3,"parameterNumberName":"V-component_of_WINDS"},"data":[0,0,0,0,0,0,0,0,0,0,0,0,0,0,0,0,0,0,0,0,0,0,0,0,0,0,0,0,0,0,0,0,0,0,0,0,0,0,0,0,0,0,0,0,0,0,0,0,0,0,0,0,0,0,0,0,0,0,-5.8245,-5.8247,0,-5.8435,-5.8437,-5.8439,-5.8363,-5.8359,-5.8354,-5.835,-5.8544,-5.8553,-5.8562,0,0,0,0,0,0,0,0,0,0,0,0,0,-5.7815,-5.7823,-5.8245,-5.8247,-5.8249,-5.8435,-5.8437,-5.844,-5.8364,-5.8359,-5.8353,-5.8348,-5.8541,-5.8552,-5.8563,0,0,0,0,0,0,0,0,0,0,0,0,0,-5.8003,-5.7826,-5.8244,-5.8234,-5.8235,-5.8434,-5.8437,-5.8441,-5.8365,-5.8358,-5.8352,-5.8346,-5.8537,-5.8551,-5.8564,-5.8785,0,0,-5.8607,-5.8613,0,0,0,0,0,0,0,0,-5.7992,-5.8019,-5.8233,-5.8235,-5.8236,-5.8369,-5.8357,-5.8556,-5.8367,-5.8316,-5.835,-5.8342,-5.8491,-5.8508,-5.8558,-5.8794,-5.8802,-5.8608,-5.8617,-5.8623,-5.8627,0,0,0,0,0,0,0,-5.7979,-5.801,-5.832,-5.8236,-5.8238,-5.822,-5.8239,-5.8394,-5.8438,-5.832,-5.8315,-5.8338,-5.849,-5.8545,-5.8562,-5.8805,-5.8608,-5.862,-5.8629,-5.8634,-5.9231,-5.9238,0,0,0,0,0,0,-5.7966,-5.8,-5.8314,-5.8326,-5.8096,-5.8233,-5.8254,-5.8333,-5.8437,-5.8446,-5.8344,-5.8334,-5.8525,-5.8546,-5.8569,-5.8835,-5.8623,-5.8636,-5.8644,-5.9224,-5.9233,-5.9241,0,0,0,0,0,0,-5.7957,-5.7995,-5.8306,-5.8162,-5.82,-5.8247,-5.8336,-5.834,-5.8395,-5.8455,-5.8462,-5.8392,-5.852,-5.8549,-5.8732,-5.884,-5.8642,-5.8655,-5.9215,-5.9226,-5.9237,-5.9367,0,0,0,0,0,0,-5.7945,-5.7992,-5.8077,-5.8164,-5.8208,-5.8467,-5.8343,-5.8349,-5.8419,-5.8408,-5.8502,-5.8511,-5.8517,-5.8711,-5.8746,-5.8856,-5.8666,-5.9205,-5.922,-5.9233,-5.9353,-5.9381,-5.9405,0,0,0,0,0,-5.793,-5.8105,-5.8081,-5.812,-5.8314,-5.8473,-5.8498,-5.8502,-5.8428,-5.8514,-5.8552,-5.8508,-5.8822,-5.8731,-5.8769,-5.8885,-5.9198,-5.9216,-5.9232,-5.9342,-5.9376,-5.9405,0,0,0,0,0,0,-5.8029,-5.8116,-5.8091,-5.8299,-5.838,-5.846,-5.8567,-5.8538,-5.864,-5.8626,-5.8626,-5.8648,-5.8837,-5.8878,-5.8775,-5.9104,-5.8999,-5.9024,-5.907,-5.9103,-5.9128,-5.9114,-5.8677,0,0,0,0,0,-5.8075,-5.8197,-5.8266,-5.8444,-5.8485,-5.852,-5.8589,-5.8585,-5.8668,-5.8701,-5.8753,-5.8835,-5.8952,-5.9029,-5.914,-5.9358,-5.9378,-5.9457,-5.9483,-5.9504,-5.9526,-5.9645,-5.9682,-5.9296,-5.9296,-5.9295,0,0,-5.8171,-5.8234,-5.8311,-5.8465,-5.8527,-5.8653,-5.8549,-5.8686,-5.878,-5.8722,-5.8898,-5.8939,-5.903,-5.9232,-5.9323,-5.9273,-5.9637,-5.9525,-5.9542,-5.9553,-5.9666,-5.9703,-5.9735,-5.9307,-5.9305,-5.9303,0,0,-5.8411,-5.8471,-5.8626,-5.869,-5.8785,-5.8806,-5.8844,-5.8929,-5.8954,-5.9131,-5.9091,-5.9201,-5.9403,-5.947,-5.9531,-5.9797,-5.9761,-5.9833,-5.9969,-6.0086,-6.0116,-6.0143,-6.0239,-6.0274,-5.9855,-5.9855,-5.9855,0,-5.8519,-5.8708,-5.8709,-5.8851,-5.892,-5.8874,-5.9031,-5.9092,-5.9219,-5.9268,-5.9209,-5.9462,-5.952,-5.9737,-5.9802,-5.9852,-5.9895,-5.9823,-6.0112,-6.0139,-6.0164,-6.0256,-6.0292,-5.9863,-5.9862,-5.9862,-5.9861,0,-5.8836,-5.8968,-5.9082,-5.9206,-5.9287,-5.9436,-5.9459,-5.9542,-5.9532,-5.956,-5.974,-5.9808,-5.9933,-5.9984,-5.9974,-6.02,-6.0166,-6.011,-6.0005,-6.0209,-6.0295,-6.033,-5.9875,-5.9872,-5.987,-5.9868,0,0,-5.9145,-5.9267,-5.9309,-5.9365,-5.9467,-5.9568,-5.9715,-5.9837,-5.9909,-5.9997,-6.012,-6.0292,-6.0242,-6.031,-6.0308,-6.041,-6.0618,-6.0341,-6.0343,-6.0391,-6.0872,-6.0915,-6.0955,-6.0594,-6.06,-6.0606,-6.0865,0,-5.9394,-5.9651,-5.9657,-5.9893,-6.0015,-5.9973,-6.0101,-6.0177,-6.0207,-6.0314,-6.0347,-6.047,-6.0392,-6.0434,-6.0533,-6.0572,-6.0715,-6.0553,-6.0709,-6.0714,-6.0689,-6.1,-6.1046,-6.1287,-6.0898,-6.0904,-6.0908,0,-5.9719,-5.9819,-6.0068,-6.0152,-6.0203,-6.0318,-6.0431,-6.0535,-6.062,-6.0635,-6.0712,-6.0695,-6.0844,-6.0734,-6.094,-6.083,-6.0894,-6.0923,-6.0932,-6.0948,-6.0824,-6.1025,-6.1364,-6.1401,-6.0961,-6.0957,-6.0953,0,-5.992,-6.0117,-6.0291,-6.034,-6.0443,-6.0525,-6.0571,-6.065,-6.0723,-6.0822,-6.087,-6.0984,-6.1047,-6.1136,-6.115,-6.1069,-6.1358,-6.1248,-6.1374,-6.1375,-6.1438,-6.1434,-6.1793,-6.1478,-6.1477,-6.1476,-6.1476,0,-6.0198,-6.0353,-6.0383,-6.0491,-6.0662,-6.0667,-6.0836,-6.0876,-6.0947,-6.1061,-6.1031,-6.1139,-6.115,-6.1262,-6.1273,-6.1443,-6.1471,-6.1487,-6.1489,-6.1491,-6.1489,-6.1534,-6.1518,-6.1486,-6.1484,-6.1482,-6.148,0,-6.0453,-6.0479,-6.0667,-6.0749,-6.0773,-6.0896,-6.0966,-6.1069,-6.1096,-6.1241,-6.1276,-6.1318,-6.1448,-6.147,-6.1623,-6.163,-6.1834,-6.1817,-6.1805,-6.1804,-6.1929,-6.1917,-6.233,-6.2385,-6.2032,-6.2036,-6.2039,0,-6.0629,-6.0747,-6.0842,-6.0917,-6.0968,-6.1089,-6.1164,-6.1172,-6.1252,-6.1358,-6.1449,-6.1575,-6.1677,-6.1886,-6.193,-6.2047,-6.2034,-6.217,-6.2051,-6.205,-6.2038,-6.2031,-6.2043,-6.2194,-6.2198,-6.2201,-6.2203,0,-6.094,-6.0947,-6.1057,-6.1173,-6.1263,-6.1354,-6.144,-6.1503,-6.1523,-6.1614,-6.1746,-6.1825,-6.1981,-6.2108,-6.2224,-6.2271,-6.2242,-6.224,-6.2276,-6.228,-6.2269,-6.2278,-6.1869,-6.2231,-6.2228,-6.2226,-6.2225,-6.2224,-6.1162,-6.1265,-6.1348,-6.1472,-6.1537,-6.1619,-6.172,-6.176,-6.187,-6.1999,-6.1997,-6.2143,-6.2225,-6.2378,-6.2433,-6.2547,-6.2503,-6.2554,-6.2568,-6.2581,-6.2593,-6.225,-6.2568,-6.2567,-6.2566,-6.2566,-6.2565,0,-6.1472,-6.1523,-6.1637,-6.1759,-6.1856,-6.182,-6.1913,-6.1997,-6.2126,-6.2205,-6.2307,-6.2459,-6.2582,-6.2636,-6.2757,-6.2838,-6.2827,-6.2869,-6.2864,-6.2875,-6.2625,-6.2583,-6.2876,-6.2876,-6.2876,-6.2875,-6.2875,-6.2875,-6.1645,-6.1818,-6.1835,-6.2041,-6.2091,-6.2234,-6.2291,-6.2366,-6.243,-6.2602,-6.2704,-6.2738,-6.2808,-6.2934,-6.3044,-6.3057,-6.3103,-6.3152,-6.3159,-6.2924,-6.2893,-6.2863,-6.2823,-6.3162,-6.3162,-6.34,-6.3402,-6.3404]}]]